• în Republica Moldova
  • Lista ţărilor
  • Pe 7 zile
  • Temperatura apei
  • Hartă satelitară
  • Meteo pe hartă
  • Widget-uri
  • user-avatar
    Intrare

    Meteo pe oră la Wiktoria

    Astăzi, 27 Mai, Sâmbătă

    Timp Temperatura Precipitaţii Vânt Presiune Umiditate
    00:00 +13°C° 0 mm 1 m/s 753 mmHg 88%
    01:00 +13°C° 0 mm 1 m/s 753 mmHg 88%
    02:00 +13°C° 0 mm 1 m/s 753 mmHg 87%
    03:00 +13°C° 0 mm 1 m/s 753 mmHg 87%
    04:00 +13°C° 0 mm 1 m/s 752 mmHg 86%
    05:00 +12°C° 0 mm 1 m/s 752 mmHg 87%
    06:00 +12°C° 0 mm 1 m/s 752 mmHg 87%
    07:00 +12°C° 0 mm 1 m/s 752 mmHg 88%
    08:00 +13°C° 0 mm 1 m/s 752 mmHg 85%
    09:00 +13°C° 0 mm 1 m/s 752 mmHg 82%
    10:00 +14°C° 0 mm 2 m/s 752 mmHg 78%
    11:00 +15°C° 0,1 mm 2 m/s 751 mmHg 74%
    12:00 +16°C° 0,1 mm 2 m/s 751 mmHg 69%
    13:00 +17°C° 0,1 mm 2 m/s 750 mmHg 65%
    14:00 +17°C° 0,1 mm 2 m/s 749 mmHg 64%
    15:00 +17°C° 0,1 mm 2 m/s 749 mmHg 63%
    16:00 +17°C° 0,1 mm 2 m/s 748 mmHg 63%
    17:00 +16°C° 0 mm 2 m/s 748 mmHg 68%
    18:00 +15°C° 0 mm 2 m/s 748 mmHg 74%
    19:00 +13°C° 0 mm 2 m/s 748 mmHg 79%
    20:00 +13°C° 0,1 mm 2 m/s 748 mmHg 80%
    21:00 +13°C° 0,1 mm 2 m/s 747 mmHg 81%
    22:00 +13°C° 0,1 mm 2 m/s 747 mmHg 81%
    23:00 +12°C° 0,6 mm 2 m/s 747 mmHg 86%

    Mâine, 28 Mai, Duminică

    Timp Temperatura Precipitaţii Vânt Presiune Umiditate
    00:00 +12°C° 0,6 mm 2 m/s 746 mmHg 90%
    01:00 +10°C° 0,6 mm 2 m/s 746 mmHg 94%
    02:00 +10°C° 1,2 mm 2 m/s 745 mmHg 95%
    03:00 +10°C° 1,2 mm 2 m/s 745 mmHg 96%
    04:00 +10°C° 1,2 mm 2 m/s 745 mmHg 97%
    05:00 +10°C° 0,2 mm 2 m/s 745 mmHg 97%
    06:00 +10°C° 0,2 mm 2 m/s 745 mmHg 97%
    07:00 +10°C° 0,2 mm 2 m/s 745 mmHg 97%
    08:00 +10°C° 0,1 mm 2 m/s 745 mmHg 95%
    09:00 +10°C° 0,1 mm 2 m/s 746 mmHg 92%
    10:00 +10°C° 0,1 mm 2 m/s 746 mmHg 90%
    11:00 +12°C° 0,2 mm 2 m/s 746 mmHg 84%
    12:00 +13°C° 0,2 mm 2 m/s 746 mmHg 79%
    13:00 +12°C° 0,2 mm 3 m/s 745 mmHg 74%
    14:00 +13°C° 0,4 mm 2 m/s 746 mmHg 77%
    15:00 +12°C° 0,4 mm 2 m/s 746 mmHg 80%
    16:00 +12°C° 0,4 mm 2 m/s 746 mmHg 83%
    17:00 +10°C° 0,4 mm 2 m/s 746 mmHg 87%
    18:00 +9°C° 0,4 mm 2 m/s 747 mmHg 91%
    19:00 +9°C° 0,4 mm 1 m/s 747 mmHg 95%
    20:00 +8°C° 0,1 mm 1 m/s 748 mmHg 96%
    21:00 +8°C° 0,1 mm 1 m/s 748 mmHg 96%
    22:00 +7°C° 0,1 mm 1 m/s 749 mmHg 97%
    23:00 +7°C° 0 mm 1 m/s 749 mmHg 97%

    Poimâine, 29 Mai, Luni

    Timp Temperatura Precipitaţii Vânt Presiune Umiditate
    00:00 +6°C° 0 mm 1 m/s 749 mmHg 97%
    01:00 +6°C° 0 mm 1 m/s 750 mmHg 98%
    02:00 +5°C° 0 mm 1 m/s 750 mmHg 98%
    03:00 +5°C° 0 mm 1 m/s 751 mmHg 98%
    04:00 +5°C° 0 mm 1 m/s 751 mmHg 99%
    05:00 +4°C° 0 mm 1 m/s 751 mmHg 99%
    06:00 +4°C° 0 mm 1 m/s 752 mmHg 99%
    07:00 +4°C° 0 mm 1 m/s 752 mmHg 99%
    08:00 +5°C° 0 mm 1 m/s 753 mmHg 95%
    09:00 +7°C° 0 mm 1 m/s 753 mmHg 92%
    10:00 +8°C° 0 mm 1 m/s 754 mmHg 88%
    11:00 +10°C° 0 mm 1 m/s 754 mmHg 80%
    12:00 +11°C° 0 mm 1 m/s 754 mmHg 73%
    13:00 +12°C° 0 mm 1 m/s 753 mmHg 65%
    14:00 +12°C° 0 mm 1 m/s 753 mmHg 64%
    15:00 +13°C° 0 mm 1 m/s 753 mmHg 63%
    16:00 +13°C° 0 mm 1 m/s 753 mmHg 63%
    17:00 +11°C° 0 mm 1 m/s 754 mmHg 68%
    18:00 +10°C° 0 mm 1 m/s 754 mmHg 74%
    19:00 +9°C° 0 mm 1 m/s 754 mmHg 80%
    20:00 +8°C° 0 mm 1 m/s 754 mmHg 83%
    21:00 +7°C° 0 mm 1 m/s 755 mmHg 86%
    22:00 +7°C° 0 mm 1 m/s 755 mmHg 90%
    23:00 +6°C° 0 mm 1 m/s 754 mmHg 91%

    30 Mai, Marţi

    Timp Temperatura Precipitaţii Vânt Presiune Umiditate
    00:00 +6°C° 0 mm 1 m/s 754 mmHg 92%
    01:00 +6°C° 0 mm 1 m/s 754 mmHg 93%
    02:00 +6°C° 0 mm 1 m/s 754 mmHg 92%
    03:00 +6°C° 0 mm 1 m/s 754 mmHg 92%
    04:00 +6°C° 0 mm 1 m/s 753 mmHg 91%
    05:00 +6°C° 0 mm 1 m/s 753 mmHg 91%
    06:00 +6°C° 0 mm 1 m/s 753 mmHg 90%
    07:00 +6°C° 0 mm 1 m/s 753 mmHg 90%
    08:00 +6°C° 0 mm 2 m/s 753 mmHg 85%
    09:00 +7°C° 0 mm 2 m/s 753 mmHg 80%
    10:00 +8°C° 0 mm 2 m/s 753 mmHg 75%
    11:00 +9°C° 0,1 mm 2 m/s 752 mmHg 73%
    12:00 +10°C° 0,1 mm 2 m/s 752 mmHg 71%
    13:00 +12°C° 0,1 mm 2 m/s 751 mmHg 69%
    14:00 +12°C° 0,1 mm 2 m/s 751 mmHg 71%
    15:00 +12°C° 0,1 mm 2 m/s 750 mmHg 73%
    16:00 +12°C° 0,1 mm 2 m/s 750 mmHg 75%
    17:00 +10°C° 0,8 mm 2 m/s 750 mmHg 81%
    18:00 +10°C° 0,8 mm 1 m/s 750 mmHg 86%
    19:00 +10°C° 0,8 mm 1 m/s 750 mmHg 91%
    20:00 +9°C° 0,9 mm 1 m/s 750 mmHg 93%
    21:00 +9°C° 0,9 mm 1 m/s 751 mmHg 94%
    22:00 +8°C° 0,9 mm 2 m/s 751 mmHg 96%
    23:00 +8°C° 0,2 mm 1 m/s 751 mmHg 97%

    31 Mai, Miercuri

    Timp Temperatura Precipitaţii Vânt Presiune Umiditate
    00:00 +8°C° 0,2 mm 1 m/s 751 mmHg 97%
    01:00 +8°C° 0,2 mm 1 m/s 751 mmHg 98%
    02:00 +8°C° 0,1 mm 1 m/s 751 mmHg 97%
    03:00 +8°C° 0,1 mm 1 m/s 752 mmHg 97%
    04:00 +8°C° 0,1 mm 1 m/s 752 mmHg 97%
    05:00 +7°C° 0,1 mm 1 m/s 753 mmHg 97%
    06:00 +7°C° 0,1 mm 1 m/s 753 mmHg 98%
    07:00 +7°C° 0,1 mm 1 m/s 754 mmHg 98%
    08:00 +8°C° 0 mm 1 m/s 754 mmHg 96%
    09:00 +9°C° 0 mm 1 m/s 755 mmHg 93%
    10:00 +10°C° 0 mm 1 m/s 755 mmHg 91%
    11:00 +10°C° 0 mm 2 m/s 755 mmHg 83%
    12:00 +13°C° 0 mm 2 m/s 755 mmHg 76%
    13:00 +13°C° 0 mm 3 m/s 755 mmHg 68%
    14:00 +13°C° 0 mm 3 m/s 755 mmHg 69%
    15:00 +13°C° 0 mm 3 m/s 756 mmHg 70%
    16:00 +13°C° 0 mm 3 m/s 756 mmHg 71%
    17:00 +13°C° 0 mm 2 m/s 756 mmHg 77%
    18:00 +12°C° 0 mm 2 m/s 757 mmHg 83%
    19:00 +10°C° 0 mm 2 m/s 758 mmHg 89%
    20:00 +9°C° 0 mm 2 m/s 758 mmHg 90%
    21:00 +9°C° 0 mm 2 m/s 759 mmHg 91%
    22:00 +9°C° 0 mm 2 m/s 759 mmHg 91%
    23:00 +9°C° 0 mm 2 m/s 759 mmHg 92%

    1 Iunie, Joi

    Timp Temperatura Precipitaţii Vânt Presiune Umiditate
    00:00 +9°C° 0 mm 2 m/s 760 mmHg 92%
    01:00 +8°C° 0 mm 2 m/s 760 mmHg 92%
    02:00 +8°C° 0 mm 2 m/s 760 mmHg 92%
    03:00 +8°C° 0 mm 2 m/s 760 mmHg 92%
    04:00 +8°C° 0 mm 2 m/s 760 mmHg 92%
    05:00 +7°C° 0 mm 2 m/s 761 mmHg 93%
    06:00 +8°C° 0 mm 1 m/s 761 mmHg 94%
    07:00 +8°C° 0 mm 1 m/s 762 mmHg 95%
    08:00 +8°C° 0 mm 2 m/s 762 mmHg 88%
    09:00 +9°C° 0 mm 2 m/s 762 mmHg 80%
    10:00 +12°C° 0 mm 2 m/s 762 mmHg 73%
    11:00 +13°C° 0 mm 2 m/s 762 mmHg 67%
    12:00 +14°C° 0 mm 2 m/s 762 mmHg 62%
    13:00 +15°C° 0 mm 2 m/s 761 mmHg 57%
    14:00 +15°C° 0 mm 2 m/s 761 mmHg 59%
    15:00 +15°C° 0 mm 2 m/s 761 mmHg 61%
    16:00 +14°C° 0 mm 2 m/s 761 mmHg 63%
    17:00 +13°C° 0 mm 2 m/s 762 mmHg 70%
    18:00 +10°C° 0 mm 2 m/s 762 mmHg 77%
    19:00 +9°C° 0 mm 2 m/s 763 mmHg 85%
    20:00 +9°C° 0 mm 1 m/s 763 mmHg 87%
    21:00 +8°C° 0 mm 1 m/s 763 mmHg 90%
    22:00 +8°C° 0 mm 1 m/s 764 mmHg 92%
    23:00 +7°C° 0 mm 1 m/s 763 mmHg 94%
    Arată mai mult